Regional Weather Roundup
Issued by NWS

Home | Current Version | Previous Version | Text Only | Print | Product List | Glossary On
Versions: 1 2 3 4 5 6 7 8 9 10 11 12 13 14 15 16 17 18 19 20 21 22 23 24 25 26 27 28 29 30 31 32 33 34 35 36 37 38 39 40 41 42 43 44 45 46 47 48 49 50
959
ASUS44 KJAN 220403
RWRMS

MISSISSIPPI HOURLY WEATHER ROUNDUP
NATIONAL WEATHER SERVICE JACKSON MS
1000 PM CST SUN DEC 21 2014

NOTE: "FAIR: INDICATES FEW OR NO CLOUDS BELOW 12,000 FEET WITH NO
SIGNIFICANT WEATHER AND/OR OBSTRUCTIONS TO VISIBILITY.

MSZ001>002-007>008-010>013-018>021-025>028-034>036-220500-
NORTHWEST MISSISSIPPI

CITY           SKY/WX    TMP DP  RH WIND       PRES   REMARKS
CLARKSDALE     CLOUDY    48  45  87 SE8       29.95F
CLEVELAND      FAIR      48  46  92 SE8       29.94F
GREENWOOD      MOCLDY    49  45  86 VRB5      29.97S
GREENVILLE     CLEAR     50  44  80 SE10      29.93F
GRENADA        FAIR      43  43 100 CALM      29.99R
OLIVE BRANCH   CLEAR     41  41 100 SE6       29.96F
OXFORD         FAIR      43  39  87 SE6       29.99S
TUNICA         MOCLDY    46  43  87 SE7       29.95F
$$

MSZ003>006-009-014>017-022>024-029>033-037>039-220500-
NORTHEAST MISSISSIPPI

CITY           SKY/WX    TMP DP  RH WIND       PRES   REMARKS
COLUMBUS AFB   CLOUDY    47  46  94 S5        30.01F
CORINTH        CLOUDY    41  39  93 CALM      30.00S
GOLDN TRIANGLE CLOUDY    48  45  87 S5        30.01F
STARKVILLE     CLOUDY    46  45  93 SE6       30.01F FOG
TUPELO         MOCLDY    47  42  83 S7        30.00F
$$

MSZ040-058-220500-
CENTRAL MISSISSIPPI

CITY           SKY/WX    TMP DP  RH WIND       PRES   REMARKS
JACKSON INTL   CLOUDY    50  48  93 SE7       29.98F FOG
JACKSON HAWKNS CLOUDY    50  48  93 SE8       29.97F FOG
MERIDIAN KEY   CLOUDY    50  48  93 E3        30.00F FOG
MERIDIAN NAS   CLOUDY    48  47  96 E3        30.02F FOG
RAYMOND        CLOUDY    48  45  87 E7        29.97F FOG
VICKSBURG      CLOUDY    51  47  86 SE9       29.96F
$$

MSZ059>079-220500-
SOUTH MISSISSIPPI

CITY           SKY/WX    TMP DP  RH WIND       PRES   REMARKS
HATTIESBURG    CLOUDY    52  51  97 E3        30.00F FOG
MCCOMB           N/A     52  48  86 E6        29.97F
NATCHEZ        CLOUDY    54  48  82 S3        29.97R
PINE BELT      CLOUDY    52  46  82 E3        30.00F
$$

MSZ080>082-220500-
COASTAL MISSISSIPPI

CITY           SKY/WX    TMP DP  RH WIND       PRES   REMARKS
BILOXI         CLOUDY    56  56 100 E5        29.98S
PASCAGOULA     CLOUDY    56  54  93 E5        29.99S
GULFPORT       CLOUDY    56  54  93 E6        29.98S FOG
$$



USA.gov is the U.S. government's official web portal to all federal, state and local government web resources and services.